Location: Unspecified
(0.0000°N, 0.0000°E)
Time: 13:00:06
(UTC+00:00)

Envisat - Pass Details

Date: 26 March 2020
Orbit: 764 x 766 km, 98.1° (Epoch: 02 April)

Event Time Altitude Azimuth Distance (km) Brightness Sun altitude
Rises 05:19:29 0° 37° (NE) 3,215 6.8 -11.5°
Reaches altitude 10° 05:22:13 10° 51° (NE) 2,292 6.3 -10.8°
Maximum altitude 05:26:07 23° 102° (ESE) 1,596 5.7 -9.9°
Drops below altitude 10° 05:30:02 10° 153° (SSE) 2,300 5.8 -8.9°
Sets 05:32:47 0° 167° (SSE) 3,229 6.4 -8.2°
